Time,TemperatureF,DewpointF,PressureIn,WindDirection,WindDirectionDegrees,WindSpeedMPH,WindSpeedGustMPH,Humidity,HourlyPrecipIn,Conditions,Clouds,dailyrainin,SolarRadiationWatts/m^2,SoftwareType,DateUTC
2013-07-12 00:22:00,56.0,38.0,-100.00,East,85,3.0,4.0,50,0.00,,,0.00,1.000000,,2013-07-12 07:22:00,
2013-07-12 00:32:00,56.0,38.0,-100.00,East,85,3.0,4.0,50,0.00,,,0.00,1.000000,,2013-07-12 07:32:00,
2013-07-12 00:43:00,56.0,38.0,-100.00,East,85,3.0,4.0,50,0.00,,,0.00,1.000000,,2013-07-12 07:43:00,
2013-07-12 00:52:00,56.0,38.0,-100.00,East,85,3.0,4.0,50,0.00,,,0.00,1.000000,,2013-07-12 07:52:00,
2013-07-12 01:21:00,55.0,38.0,-100.00,ESE,114,3.0,4.0,52,0.00,,,0.00,1.000000,,2013-07-12 08:21:00,
2013-07-12 01:32:00,55.0,38.0,-100.00,ESE,114,3.0,4.0,52,0.00,,,0.00,1.000000,,2013-07-12 08:32:00,
2013-07-12 01:42:00,55.0,38.0,-100.00,ESE,114,3.0,4.0,52,0.00,,,0.00,1.000000,,2013-07-12 08:42:00,
2013-07-12 01:53:00,55.0,38.0,-100.00,ESE,114,3.0,4.0,52,0.00,,,0.00,1.000000,,2013-07-12 08:53:00,
2013-07-12 02:22:00,54.0,38.0,-100.00,East,95,1.0,4.0,54,0.00,,,0.00,1.000000,,2013-07-12 09:22:00,
2013-07-12 02:32:00,54.0,38.0,-100.00,East,95,1.0,4.0,54,0.00,,,0.00,1.000000,,2013-07-12 09:32:00,
2013-07-12 02:42:00,54.0,38.0,-100.00,East,95,1.0,4.0,54,0.00,,,0.00,1.000000,,2013-07-12 09:42:00,
2013-07-12 02:52:00,54.0,38.0,-100.00,East,95,1.0,4.0,54,0.00,,,0.00,1.000000,,2013-07-12 09:52:00,
2013-07-12 03:22:00,50.0,38.0,-100.00,East,79,4.0,5.0,63,0.00,,,0.00,1.000000,,2013-07-12 10:22:00,
2013-07-12 03:33:00,50.0,38.0,-100.00,East,79,4.0,5.0,63,0.00,,,0.00,1.000000,,2013-07-12 10:33:00,
2013-07-12 03:42:00,50.0,38.0,-100.00,East,79,4.0,5.0,63,0.00,,,0.00,1.000000,,2013-07-12 10:42:00,
2013-07-12 03:52:00,50.0,38.0,-100.00,East,79,4.0,5.0,63,0.00,,,0.00,1.000000,,2013-07-12 10:52:00,
2013-07-12 04:22:00,49.0,37.0,-100.00,ENE,67,5.0,6.0,63,0.00,,,0.00,1.000000,,2013-07-12 11:22:00,
2013-07-12 04:32:00,49.0,37.0,-100.00,ENE,67,5.0,6.0,63,0.00,,,0.00,1.000000,,2013-07-12 11:32:00,
2013-07-12 04:43:00,49.0,37.0,-100.00,ENE,67,5.0,6.0,63,0.00,,,0.00,1.000000,,2013-07-12 11:43:00,
2013-07-12 04:52:00,49.0,37.0,-100.00,ENE,67,5.0,6.0,63,0.00,,,0.00,1.000000,,2013-07-12 11:52:00,
2013-07-12 05:22:00,47.0,37.0,-100.00,ENE,66,5.0,8.0,68,0.00,,,0.00,1.000000,,2013-07-12 12:22:00,
2013-07-12 05:32:00,47.0,37.0,-100.00,ENE,66,5.0,8.0,68,0.00,,,0.00,1.000000,,2013-07-12 12:32:00,
2013-07-12 05:43:00,47.0,37.0,-100.00,ENE,66,5.0,8.0,68,0.00,,,0.00,1.000000,,2013-07-12 12:43:00,
2013-07-12 05:52:00,47.0,37.0,-100.00,ENE,66,5.0,8.0,68,0.00,,,0.00,1.000000,,2013-07-12 12:52:00,
2013-07-12 06:22:00,46.0,39.0,-100.00,ENE,75,6.0,8.0,77,0.00,,,0.00,3.000000,,2013-07-12 13:22:00,
2013-07-12 06:32:00,46.0,39.0,-100.00,ENE,75,6.0,8.0,77,0.00,,,0.00,3.000000,,2013-07-12 13:32:00,
2013-07-12 06:43:00,46.0,39.0,-100.00,ENE,75,6.0,8.0,77,0.00,,,0.00,3.000000,,2013-07-12 13:43:00,
2013-07-12 06:53:00,46.0,39.0,-100.00,ENE,75,6.0,8.0,77,0.00,,,0.00,3.000000,,2013-07-12 13:53:00,
2013-07-12 07:22:00,51.0,40.0,-100.00,ENE,70,5.0,7.0,65,0.00,,,0.00,73.000000,,2013-07-12 14:22:00,
2013-07-12 07:32:00,51.0,40.0,-100.00,ENE,70,5.0,7.0,65,0.00,,,0.00,73.000000,,2013-07-12 14:32:00,
2013-07-12 07:43:00,51.0,40.0,-100.00,ENE,70,5.0,7.0,65,0.00,,,0.00,73.000000,,2013-07-12 14:43:00,
2013-07-12 07:53:00,51.0,40.0,-100.00,ENE,70,5.0,7.0,65,0.00,,,0.00,73.000000,,2013-07-12 14:53:00,
2013-07-12 08:22:00,58.0,43.0,-100.00,ENE,71,4.0,8.0,58,0.00,,,0.00,252.000000,,2013-07-12 15:22:00,
2013-07-12 08:33:00,58.0,43.0,-100.00,ENE,71,4.0,8.0,58,0.00,,,0.00,252.000000,,2013-07-12 15:33:00,
2013-07-12 08:43:00,58.0,43.0,-100.00,ENE,71,4.0,8.0,58,0.00,,,0.00,252.000000,,2013-07-12 15:43:00,
2013-07-12 08:52:00,58.0,43.0,-100.00,ENE,71,4.0,8.0,58,0.00,,,0.00,252.000000,,2013-07-12 15:52:00,
2013-07-12 09:32:00,66.0,45.0,-100.00,NE,47,3.0,7.0,46,0.00,,,0.00,442.000000,,2013-07-12 16:32:00,
2013-07-12 09:42:00,66.0,45.0,-100.00,NE,47,3.0,7.0,46,0.00,,,0.00,442.000000,,2013-07-12 16:42:00,
2013-07-12 09:54:00,66.0,45.0,-100.00,NE,47,3.0,7.0,46,0.00,,,0.00,442.000000,,2013-07-12 16:54:00,
2013-07-12 10:34:00,69.0,44.0,-100.00,South,180,5.0,10.0,40,0.00,,,-99.99,626.000000,,2013-07-12 17:34:00,
2013-07-12 10:44:00,69.0,44.0,-100.00,South,180,5.0,10.0,40,0.00,,,-99.99,626.000000,,2013-07-12 17:44:00,
2013-07-12 10:53:00,69.0,44.0,-100.00,South,180,5.0,10.0,40,0.00,,,-99.99,626.000000,,2013-07-12 17:53:00,
2013-07-12 11:34:00,72.0,44.0,-100.00,South,185,6.0,12.0,37,0.00,,,0.00,791.000000,,2013-07-12 18:34:00,
2013-07-12 11:45:00,72.0,44.0,-100.00,South,185,6.0,12.0,37,0.00,,,0.00,791.000000,,2013-07-12 18:45:00,
2013-07-12 11:53:00,72.0,44.0,-100.00,South,185,6.0,12.0,37,0.00,,,0.00,791.000000,,2013-07-12 18:53:00,
2013-07-12 12:44:00,75.0,41.0,-100.00,SW,226,11.0,18.0,29,0.00,,,0.00,916.000000,,2013-07-12 19:44:00,
2013-07-12 12:53:00,75.0,41.0,-100.00,SW,226,11.0,18.0,29,0.00,,,0.00,916.000000,,2013-07-12 19:53:00,
2013-07-12 14:33:00,77.0,35.0,-100.00,West,273,11.0,19.0,22,0.00,,,0.00,1012.000000,,2013-07-12 21:33:00,
2013-07-12 14:43:00,77.0,35.0,-100.00,West,273,11.0,19.0,22,0.00,,,0.00,1012.000000,,2013-07-12 21:43:00,
2013-07-12 15:43:00,77.0,36.0,-100.00,WNW,291,14.0,24.0,23,0.00,,,0.00,981.000000,,2013-07-12 22:43:00,
2013-07-12 15:53:00,77.0,36.0,-100.00,WNW,291,14.0,24.0,23,0.00,,,0.00,981.000000,,2013-07-12 22:53:00,
2013-07-12 16:22:00,76.0,34.0,-100.00,WNW,282,14.0,26.0,22,0.00,,,0.00,902.000000,,2013-07-12 23:22:00,
2013-07-12 16:33:00,76.0,34.0,-100.00,WNW,282,14.0,26.0,22,0.00,,,0.00,902.000000,,2013-07-12 23:33:00,
2013-07-12 16:42:00,76.0,34.0,-100.00,WNW,282,14.0,26.0,22,0.00,,,0.00,902.000000,,2013-07-12 23:42:00,
2013-07-12 16:53:00,76.0,34.0,-100.00,WNW,282,14.0,26.0,22,0.00,,,0.00,902.000000,,2013-07-12 23:53:00,
2013-07-12 17:53:00,75.0,34.0,-100.00,West,272,14.0,24.0,22,0.00,,,0.00,772.000000,,2013-07-13 00:53:00,
2013-07-12 18:24:00,75.0,39.0,-100.00,WNW,302,10.0,22.0,27,0.00,,,0.00,600.000000,,2013-07-13 01:24:00,
2013-07-12 18:34:00,75.0,39.0,-100.00,WNW,302,10.0,22.0,27,0.00,,,0.00,600.000000,,2013-07-13 01:34:00,
2013-07-12 18:44:00,75.0,39.0,-100.00,WNW,302,10.0,22.0,27,0.00,,,0.00,600.000000,,2013-07-13 01:44:00,
2013-07-12 19:22:00,71.0,38.0,-100.00,WNW,297,13.0,21.0,30,0.00,,,0.00,404.000000,,2013-07-13 02:22:00,
2013-07-12 19:44:00,71.0,38.0,-100.00,WNW,297,13.0,21.0,30,0.00,,,0.00,404.000000,,2013-07-13 02:44:00,
2013-07-12 19:53:00,71.0,38.0,-100.00,WNW,297,13.0,21.0,30,0.00,,,0.00,404.000000,,2013-07-13 02:53:00,
2013-07-12 20:34:00,68.0,36.0,-100.00,WNW,297,9.0,21.0,31,0.00,,,0.00,214.000000,,2013-07-13 03:34:00,
2013-07-12 20:44:00,68.0,36.0,-100.00,WNW,297,9.0,21.0,31,0.00,,,0.00,214.000000,,2013-07-13 03:44:00,
2013-07-12 21:22:00,62.0,34.0,-100.00,NW,315,6.0,17.0,35,0.00,,,-99.99,48.000000,,2013-07-13 04:22:00,
2013-07-12 21:32:00,62.0,34.0,-100.00,NW,315,6.0,17.0,35,0.00,,,-99.99,48.000000,,2013-07-13 04:32:00,
2013-07-12 21:43:00,62.0,34.0,-100.00,NW,315,6.0,17.0,35,0.00,,,-99.99,48.000000,,2013-07-13 04:43:00,
2013-07-12 21:52:00,62.0,34.0,-100.00,NW,315,6.0,17.0,35,0.00,,,-99.99,48.000000,,2013-07-13 04:52:00,
2013-07-12 22:42:00,59.0,34.0,-100.00,East,80,2.0,8.0,39,0.00,,,0.00,1.000000,,2013-07-13 05:42:00,
2013-07-12 22:52:00,59.0,34.0,-100.00,East,80,2.0,8.0,39,0.00,,,0.00,1.000000,,2013-07-13 05:52:00,
2013-07-12 23:43:00,59.0,33.0,-100.00,NNW,344,5.0,6.0,38,0.00,,,0.00,1.000000,,2013-07-13 06:43:00,
2013-07-12 23:52:00,59.0,33.0,-100.00,NNW,344,5.0,6.0,38,0.00,,,0.00,1.000000,,2013-07-13 06:52:00,